Weather History for PAGK - October, 2013

Change the Weather History Date:

Monday, October 14, 2013

  Actual Average Record
Temperature  
Mean Temperature 40 °F -  
Max Temperature 48 °F 38 °F 58 °F (1969)
Min Temperature 35 °F 22 °F -12 °F (1959)
Degree Days  
Heating Degree Days 24    
Moisture  
Dew Point 29 °F    
Average Humidity 62    
Maximum Humidity 79    
Minimum Humidity 35    
Precipitation  
Precipitation 0.00 in - - ()
Sea Level Pressure  
Sea Level Pressure 29.93 in    
Wind  
Wind Speed 15 mph (SSE)    
Max Wind Speed 24 mph    
Max Gust Speed 34 mph    
Visibility 10 miles    
Events      
Averages and records for this station are not official NWS values.
T = Trace of Precipitation, MM = Missing Value Source: NWS Daily Summary

Daily Weather History Graph

Daily Weather History Graph

Search for Another Location

Airport or City:

Trip Planner

Search our weather history database for the weather conditions in past years. The results will help you decide how hot, cold, wet, or windy it might be!

Date:

Astronomy

Oct. 14, 2013 Rise Set
Actual Time 8:25 AM AKDT 6:29 PM AKDT
Civil Twilight 7:39 AM AKDT 7:14 PM AKDT
Nautical Twilight 6:48 AM AKDT 8:05 PM AKDT
Astronomical Twilight 5:55 AM AKDT 8:57 PM AKDT
Moon 5:06 PM AKDT (10/14) 2:37 AM AKDT (10/14)
Length of Visible Light 11h 34m
Length of Day
10h 04m
Waxing Gibbous, 80% of the Moon is Illuminated
Oct 14
Waxing Gibbous
Oct 18
Full
Oct 26
Last Quarter
Nov 3
New
Nov 9
First Quarter

Hourly Weather History & Observations

Time (AKDT) Temp. Windchill Dew Point Humidity Pressure Visibility Wind Dir Wind Speed Gust Speed Precip Events Conditions
12:53 AM 39.9 °F 31.8 °F 32.0 °F 73% 29.79 in 10.0 mi South 15.0 mph - N/A   Clear
1:53 AM 37.9 °F 30.9 °F 30.9 °F 76% 29.81 in 10.0 mi SSE 10.4 mph - N/A   Clear
2:53 AM 37.9 °F 30.0 °F 30.9 °F 76% 29.83 in 10.0 mi South 12.7 mph - N/A   Partly Cloudy
3:53 AM 37.0 °F 29.3 °F 30.9 °F 79% 29.83 in 10.0 mi South 11.5 mph - N/A   Clear
4:53 AM 37.0 °F 28.9 °F 28.9 °F 73% 29.84 in 10.0 mi South 12.7 mph 20.7 mph N/A   Clear
5:53 AM 37.0 °F 28.1 °F 28.9 °F 73% 29.85 in 10.0 mi SSE 15.0 mph - N/A   Clear
6:53 AM 36.0 °F 28.5 °F 28.9 °F 76% 29.86 in 10.0 mi SSE 10.4 mph - N/A   Clear
7:53 AM 37.9 °F 30.9 °F 28.9 °F 70% 29.87 in 10.0 mi South 10.4 mph 20.7 mph N/A   Clear
8:53 AM 37.9 °F 29.6 °F 28.9 °F 70% 29.88 in 10.0 mi SSE 13.8 mph 23.0 mph N/A   Clear
9:53 AM 37.9 °F 29.2 °F 28.9 °F 70% 29.88 in 10.0 mi SSE 15.0 mph - N/A   Clear
10:53 AM 42.1 °F 33.9 °F 28.9 °F 60% 29.90 in 10.0 mi SSE 17.3 mph - N/A   Clear
11:53 AM 43.0 °F 35.1 °F 30.0 °F 60% 29.91 in 10.0 mi SSE 17.3 mph 27.6 mph N/A   Clear
12:53 PM 46.0 °F 37.6 °F 28.9 °F 51% 29.91 in 10.0 mi SSE 24.2 mph 33.4 mph N/A   Clear
1:53 PM 46.9 °F - 28.9 °F 50% 29.94 in 10.0 mi SSE 21.9 mph 29.9 mph N/A   Clear
2:53 PM 48.0 °F - 28.0 °F 46% 29.95 in 10.0 mi SSE 21.9 mph 27.6 mph N/A   Clear
3:53 PM 46.9 °F - 28.0 °F 48% 29.96 in 10.0 mi SSE 19.6 mph 34.5 mph N/A   Clear
4:53 PM 46.0 °F 38.0 °F 28.0 °F 50% 29.97 in 10.0 mi SSE 21.9 mph 28.8 mph N/A   Clear
5:53 PM 44.1 °F 35.9 °F 28.0 °F 53% 29.99 in 10.0 mi SSE 19.6 mph 26.5 mph N/A   Clear
6:53 PM 43.0 °F 35.1 °F 28.9 °F 58% 30.01 in 10.0 mi SSE 17.3 mph 27.6 mph N/A   Clear
7:53 PM 42.1 °F 33.6 °F 28.9 °F 60% 30.01 in 10.0 mi SSE 18.4 mph 25.3 mph N/A   Clear
8:53 PM 42.1 °F 34.5 °F 28.9 °F 60% 30.04 in 10.0 mi SSE 15.0 mph 26.5 mph N/A   Clear
9:53 PM 43.0 °F 35.7 °F 30.0 °F 60% 30.06 in 10.0 mi SSE 15.0 mph - N/A   Mostly Cloudy
10:53 PM 43.0 °F 35.4 °F 30.0 °F 60% 30.08 in 10.0 mi SSE 16.1 mph 24.2 mph N/A   Overcast
11:53 PM 43.0 °F 34.8 °F 28.9 °F 58% 30.09 in 10.0 mi SSE 18.4 mph 28.8 mph N/A   Mostly Cloudy